User: anonymous   Login
Location: Unspecified
(0.0000°N, 0.0000°E)
Time: 00:02:27
(UTC+00:00)
Language:

Tiangong 1 - Orbit

View from above orbital plane
View from above orbital plane
View from above satellite
View from above satellite

Ground track
Ground track

The orbit data is extracted from the following two-line orbital elements,

1 37820U 11053A   17176.30690911 +.00022078 +00000-0 +12071-3 0  9994
2 37820 042.7578 150.2512 0017569 137.9260 000.2275 15.79176539329257
Epoch (UTC): 25 June 2017 07:21:56
Eccentricity: 0.0017569
inclination: 42.7578°
perigee height: 321 km
apogee height: 344 km
right ascension of ascending node: 150.2512°
argument of perigee: 137.9260°
revolutions per day: 15.79176539
mean anomaly at epoch: 0.2275°
orbit number at epoch: 32925

The dashed part of the orbit path shows where the satellite is in the earth's shadow,  

DLR